Regional Weather Roundup
Issued by NWS

Home | Current Version | Previous Version | Graphics & Text | Print | Product List | Glossary On
Versions: 1 2 3 4 5 6 7 8 9 10 11 12 13 14 15 16 17 18 19 20 21 22 23 24 25 26 27 28 29 30 31 32 33 34 35 36 37 38 39 40 41 42 43 44 45 46 47 48 49 50
000
ASUS43 KLSX 232207
RWRMO

WEATHER SUMMARY FOR MISSOURI
NATIONAL WEATHER SERVICE SPRINGFIELD MO
400 PM CST SUN NOV 23 2014

NOTE: "FAIR" INDICATES FEW OR NO CLOUDS BELOW 12,000 FEET WITH NO
       SIGNIFICANT WEATHER AND/OR OBSTRUCTIONS TO VISIBILITY.
       CURRENT SKY AND/OR WEATHER CONDITIONS ARE NOT AVAILABLE FOR
       CHILLICOTHE AND FARMINGTON.

MOZ001>031-035>038-043-044-053-054-232300-
...NORTHERN AND WESTERN MISSOURI...

CITY           SKY/WX    TMP DP  RH WIND       PRES   REMARKS
KANSAS CTY INT LGT RAIN  48  48 100 N23G31    29.35S FOG
KANSAS C DTWN  LGT RAIN  53  49  86 NW17G25   29.32F FOG
ST JOSEPH      CLOUDY    47  42  83 N22G32    29.39R
CHILLICOTHE      N/A     56  54  93 CALM      29.34F
KIRKSVILLE     CLOUDY    54  54 100 CALM      29.34S FOG

$$
MOZ066>068-077>081-088>096-101>105-232300-
...SOUTHWEST MISSOURI...

CITY           SKY/WX    TMP DP  RH WIND       PRES   REMARKS
SPRINGFIELD    MOCLDY    59  54  83 E6        29.31S
JOPLIN         CLOUDY    62  54  74 NW10      29.30S

$$
MOZ032>034-039>042-045>050-055>058-069>072-232300-
...CENTRAL MISSOURI...

CITY           SKY/WX    TMP DP  RH WIND       PRES   REMARKS
COLUMBIA       CLOUDY    54  54 100 S5        29.33F
JEFFERSON CITY CLOUDY    55  54  96 CALM      29.33F FOG
ROLLA          CLOUDY    54  52  93 S6        29.31F
SEDALIA        LGT RAIN  56  54  93 S5        29.33F FOG
WHITEMAN AFB   CLOUDY    56  55  96 S3        29.32F
WARRENSBURG    CLOUDY    55  54  94 S3        29.32F
OSAGE BEACH    CLOUDY    55  52  88 CALM      29.33F

$$
MOZ051-052-059>065-232300-
...EAST CENTRAL MISSOURI...

CITY           SKY/WX    TMP DP  RH WIND       PRES   REMARKS
ST LOUIS INTL  LGT RAIN  56  53  90 SE8       29.34F FOG
SPIRIT OF STL  LGT RAIN  55  53  93 E3        29.32F
ST CHARLES     RAIN      52  52 100 E8        29.33F FOG

$$
MOZ072>076-082>087-097>100-106>115-232300-
...SOUTH CENTRAL AND SOUTHEAST MISSOURI...

CITY           SKY/WX    TMP DP  RH WIND       PRES   REMARKS
CAPE GIRARDEAU RAIN      55  55 100 E3        29.34F FOG
FARMINGTON     CLOUDY    55  54  94 SE6       29.35F
POPLAR BLUFF   LGT RAIN  57  54  89 CALM      29.32F
WEST PLAINS    CLOUDY    56  54  93 S6        29.34F

$$



USA.gov is the U.S. government's official web portal to all federal, state and local government web resources and services.